{"data":{"norad_id":64614,"intl_designator":"2025-137W","name":"STARLINK-34440","alt_names":[],"object_type":"PAYLOAD","status":"ACTIVE","operator":null,"country":"US","launch_date":"2025-06-25","launch_site_code":"AFETR","launch_vehicle":null,"mission":null,"orbit_class":"UNKNOWN","rcs_meters":null,"size_class":null,"mass_kg":null,"dimensions":null,"purposes":["comms"],"wikipedia_slug":null,"has_3d_model":false,"image_url":null,"decayed_at":null,"tle_current":{"epoch":"2026-09-20T09:41:24.261792Z","epoch_age_seconds":139969,"freshness":"FRESH","line1":"1 64614U 25137W   26263.40375303  .00018153  00000+0  54705-3 0  9994","line2":"2 64614  53.1578 148.1726 0000696  82.2005 277.9077 15.34402928 70586","mean_motion":15.34402928,"eccentricity":6.96e-5,"inclination_deg":53.1578,"raan_deg":148.1726,"arg_perigee_deg":82.2005,"mean_anomaly_deg":277.9077,"bstar":0.00054705,"rev_number":7058,"period_min":93.847578997842,"perigee_km":462.21841571288,"apogee_km":463.17065946291,"semimajor_km":6840.8315375879,"source":"CELESTRAK","updated_at":"2026-09-21T09:00:35.395096Z"}}}